This is the latest recevied weather packets stored in our database for station/object W8RD. If no packets are shown the sender has not sent any weather packets the latest 10 day(s).
| Time | Temp. | Humidity | Pressure | Rain* | Wind** | Luminosity | Snow |
|---|---|---|---|---|---|---|---|
| 1777691590 | 23.89° C | 86% | 1013 hPa | 0 mm | - | 0 W/m² | - |
| 1777690986 | 24.44° C | 86% | 1012.9 hPa | 0 mm | - | 0 W/m² | - |
| 1777690381 | 24.44° C | 86% | 1012.9 hPa | 0 mm | - | 0 W/m² | - |
| 1777689782 | 24.44° C | 85% | 1012.8 hPa | 0 mm | - | 0 W/m² | - |
| 1777689177 | 24.44° C | 85% | 1012.9 hPa | 0 mm | - | 0 W/m² | - |
| 1777688577 | 24.44° C | 86% | 1012.9 hPa | 0 mm | - | 0 W/m² | - |
| 1777687971 | 24.44° C | 85% | 1012.8 hPa | 0 mm | - | 0 W/m² | - |
| 1777687372 | 24.44° C | 85% | 1012.8 hPa | 0 mm | - | 0 W/m² | - |
| 1777686770 | 24.44° C | 85% | 1012.6 hPa | 0 mm | - | 0 W/m² | - |
| 1777686171 | 24.44° C | 85% | 1012.8 hPa | 0 mm | - | 0 W/m² | - |
| 1777685569 | 24.44° C | 85% | 1012.8 hPa | 0 mm | - | 0 W/m² | - |
| 1777684963 | 25° C | 85% | 1012.8 hPa | 0 mm | - | 0 W/m² | - |
| 1777684362 | 25° C | 85% | 1012.8 hPa | 0 mm | - | 0 W/m² | - |
| 1777683762 | 25° C | 84% | 1012.4 hPa | 0 mm | - | 0 W/m² | - |
| 1777683157 | 25° C | 84% | 1012.6 hPa | 0 mm | - | 0 W/m² | - |
| 1777682556 | 25° C | 83% | 1012.6 hPa | 0 mm | - | 0 W/m² | - |
| 1777681951 | 25° C | 83% | 1012.5 hPa | 0 mm | - | 0 W/m² | - |
| 1777681350 | 25° C | 82% | 1012.3 hPa | 0 mm | - | 0 W/m² | - |
| 1777680745 | 25.56° C | 81% | 1012.1 hPa | 0 mm | - | 1 W/m² | - |
| 1777680140 | 25.56° C | 81% | 1012.4 hPa | 0 mm | - | 3 W/m² | - |
| 1777679537 | 25.56° C | 79% | 1012.2 hPa | 0 mm | - | 7 W/m² | - |
| 1777678936 | 26.11° C | 78% | 1012.1 hPa | 0 mm | - | 13 W/m² | - |
| 1777678337 | 26.11° C | 77% | 1012 hPa | 0 mm | - | 19 W/m² | - |
| 1777677736 | 26.67° C | 77% | 1012 hPa | 0 mm | - | 34 W/m² | - |
| 1777677131 | 26.67° C | 78% | 1011.8 hPa | 0 mm | - | 41 W/m² | - |
* Rain latest hour (hover to see other rain measurements)
** Current wind speed in m/s (hover to see current wind gust speed)